Tracking 35275 objects as of 9-Sep-2026
HD Live streaming from Space Station
objects crossing your sky now

TK-2

Track TK-2 now!
10-day predictions


NORAD ID: 52150
Int'l Code: 2022-031A
Launch date: March 29, 2022
Source: People's Republic of China (PRC)
Launch site: Taiyaun Space Center, China (TSC)
Your satellite tracking list
Your tracking list is empty




NASA's NSSDC Master Catalog

Two Line Element Set (TLE):
1 52150U 22031A   26252.17361922  .00002571  00000-0  19073-3 0  9997
2 52150  97.8271  89.3113 0014843 199.0500 161.0172 15.03924055243087
Source of the keplerian elements: AFSPC